Location: Beverley
(50.2667°N, 107.9667°W)
Time: 13:31:43
(UTC+00:00)

XW-2A - Pass Details

Date: 02 July 2022
Orbit: 395 x 405 km, 97.2° (Epoch: 15 August)

Event Time Altitude Azimuth Distance (km) Brightness Sun altitude
Exits shadow 04:46:38 - 199° (SSW) 2,040 ? -9.6°
Reaches altitude 10° 04:48:16 10° 213° (SSW) 1,441 ? -9.8°
Maximum altitude 04:50:42 21° 266° (W) 951 ? -10.0°
Drops below altitude 10° 04:53:09 10° 318° (NW) 1,451 ? -10.2°
Sets 04:55:27 0° 335° (NNW) 2,316 ? -10.4°
